• In Deutschland
  • Länderverzeichnis
  • Für 7 Tage
  • Wassertemperatur
  • Satellitenkarten
  • Wetterkarte
  • Widgets
  • user-avatar
    Anmelden

    Stündliche Wetter Verhniy Cipikan

    Heute, 21 September, Freitag

    Zeit Temperatur Niederschläge Wind Luftdruck Luftfeuchtigkeit
    00:00 0°C° 0.2 mm 4 m/S 659 mmHg 88%
    01:00 0°C° 0.2 mm 4 m/S 659 mmHg 89%
    02:00 +1°C° 0 mm 3 m/S 659 mmHg 89%
    03:00 +1°C° 0.3 mm 3 m/S 659 mmHg 90%
    04:00 +1°C° 0.3 mm 3 m/S 659 mmHg 90%
    05:00 0°C° 0.3 mm 3 m/S 659 mmHg 91%
    06:00 +1°C° 0.4 mm 3 m/S 659 mmHg 90%
    07:00 +1°C° 0.4 mm 3 m/S 659 mmHg 90%
    08:00 +1°C° 0.4 mm 3 m/S 660 mmHg 90%
    09:00 0°C° 0.5 mm 4 m/S 660 mmHg 89%
    10:00 +1°C° 0.5 mm 4 m/S 660 mmHg 89%
    11:00 +1°C° 0.5 mm 4 m/S 661 mmHg 88%
    12:00 +3°C° 0.2 mm 4 m/S 661 mmHg 87%
    13:00 +3°C° 0.2 mm 4 m/S 661 mmHg 85%
    14:00 +3°C° 0.2 mm 5 m/S 661 mmHg 84%
    15:00 +4°C° 0.1 mm 4 m/S 662 mmHg 84%
    16:00 +4°C° 0.1 mm 4 m/S 662 mmHg 84%
    17:00 +4°C° 0.1 mm 4 m/S 662 mmHg 85%
    18:00 +3°C° 0.1 mm 3 m/S 663 mmHg 87%
    19:00 +2°C° 0.1 mm 3 m/S 663 mmHg 89%
    20:00 +1°C° 0.1 mm 3 m/S 663 mmHg 91%
    21:00 +1°C° 0 mm 2 m/S 663 mmHg 91%
    22:00 +1°C° 0 mm 2 m/S 664 mmHg 92%
    23:00 -1°C° 0 mm 2 m/S 664 mmHg 92%

    Morgen, 22 September, Samstag

    Zeit Temperatur Niederschläge Wind Luftdruck Luftfeuchtigkeit
    00:00 -1°C° 0 mm 2 m/S 664 mmHg 92%
    01:00 -2°C° 0 mm 2 m/S 664 mmHg 92%
    02:00 -2°C° 0 mm 2 m/S 664 mmHg 93%
    03:00 -2°C° 0 mm 2 m/S 664 mmHg 92%
    04:00 -3°C° 0 mm 2 m/S 664 mmHg 92%
    05:00 -3°C° 0 mm 2 m/S 664 mmHg 92%
    06:00 -2°C° 0 mm 2 m/S 665 mmHg 90%
    07:00 -1°C° 0 mm 2 m/S 665 mmHg 87%
    08:00 +1°C° 0 mm 2 m/S 666 mmHg 84%
    09:00 +2°C° 0 mm 2 m/S 666 mmHg 80%
    10:00 +4°C° 0 mm 2 m/S 666 mmHg 75%
    11:00 +4°C° 0 mm 3 m/S 666 mmHg 71%
    12:00 +5°C° 0 mm 3 m/S 666 mmHg 67%
    13:00 +5°C° 0 mm 3 m/S 666 mmHg 64%
    14:00 +7°C° 0 mm 3 m/S 666 mmHg 61%
    15:00 +7°C° 0 mm 3 m/S 666 mmHg 63%
    16:00 +5°C° 0 mm 3 m/S 666 mmHg 65%
    17:00 +5°C° 0 mm 3 m/S 666 mmHg 66%
    18:00 +4°C° 0 mm 2 m/S 666 mmHg 73%
    19:00 +2°C° 0 mm 2 m/S 666 mmHg 79%
    20:00 -1°C° 0 mm 2 m/S 666 mmHg 85%
    21:00 -2°C° 0 mm 2 m/S 666 mmHg 85%
    22:00 0°C° 0 mm 1 m/S 666 mmHg 86%
    23:00 0°C° 0 mm 1 m/S 666 mmHg 87%

    übermorgen, 23 September, Sonntag

    Zeit Temperatur Niederschläge Wind Luftdruck Luftfeuchtigkeit
    00:00 -1°C° 0 mm 1 m/S 666 mmHg 87%
    01:00 -1°C° 0 mm 1 m/S 666 mmHg 87%
    02:00 -1°C° 0 mm 1 m/S 666 mmHg 87%
    03:00 -1°C° 0 mm 1 m/S 666 mmHg 87%
    04:00 -1°C° 0 mm 1 m/S 666 mmHg 87%
    05:00 -1°C° 0 mm 1 m/S 666 mmHg 86%
    06:00 0°C° 0 mm 1 m/S 667 mmHg 81%
    07:00 +1°C° 0 mm 1 m/S 667 mmHg 76%
    08:00 +3°C° 0 mm 1 m/S 667 mmHg 71%
    09:00 +4°C° 0 mm 1 m/S 667 mmHg 64%
    10:00 +6°C° 0 mm 1 m/S 667 mmHg 57%
    11:00 +8°C° 0 mm 1 m/S 667 mmHg 50%
    12:00 +8°C° 0 mm 1 m/S 667 mmHg 47%
    13:00 +9°C° 0 mm 1 m/S 667 mmHg 44%
    14:00 +10°C° 0 mm 1 m/S 666 mmHg 41%
    15:00 +10°C° 0 mm 1 m/S 666 mmHg 45%
    16:00 +8°C° 0 mm 0 m/S 666 mmHg 49%
    17:00 +8°C° 0 mm 0 m/S 666 mmHg 53%
    18:00 +6°C° 0 mm 0 m/S 665 mmHg 58%
    19:00 +3°C° 0 mm 0 m/S 665 mmHg 62%
    20:00 +1°C° 0 mm 0 m/S 664 mmHg 67%
    21:00 +1°C° 0 mm 0 m/S 665 mmHg 68%
    22:00 +1°C° 0 mm 0 m/S 665 mmHg 68%
    23:00 0°C° 0 mm 0 m/S 665 mmHg 69%

    24 September, Montag

    Zeit Temperatur Niederschläge Wind Luftdruck Luftfeuchtigkeit
    00:00 0°C° 0 mm 0 m/S 665 mmHg 69%
    01:00 0°C° 0 mm 0 m/S 664 mmHg 69%
    02:00 0°C° 0 mm 0 m/S 664 mmHg 69%
    03:00 0°C° 0 mm 0 m/S 664 mmHg 70%
    04:00 0°C° 0 mm 0 m/S 664 mmHg 70%
    05:00 0°C° 0 mm 0 m/S 664 mmHg 70%
    06:00 +1°C° 0 mm 0 m/S 664 mmHg 66%
    07:00 +2°C° 0 mm 0 m/S 665 mmHg 61%
    08:00 +4°C° 0 mm 0 m/S 665 mmHg 57%
    09:00 +6°C° 0 mm 1 m/S 665 mmHg 53%
    10:00 +8°C° 0 mm 1 m/S 665 mmHg 49%
    11:00 +8°C° 0 mm 2 m/S 665 mmHg 45%
    12:00 +9°C° 0 mm 2 m/S 664 mmHg 43%
    13:00 +10°C° 0 mm 2 m/S 664 mmHg 42%
    14:00 +10°C° 0 mm 2 m/S 664 mmHg 41%
    15:00 +10°C° 0 mm 2 m/S 663 mmHg 46%
    16:00 +9°C° 0 mm 2 m/S 663 mmHg 51%
    17:00 +10°C° 0 mm 1 m/S 663 mmHg 56%
    18:00 +8°C° 0 mm 1 m/S 663 mmHg 62%
    19:00 +5°C° 0 mm 1 m/S 662 mmHg 68%
    20:00 +3°C° 0 mm 1 m/S 662 mmHg 74%
    21:00 +3°C° 0 mm 1 m/S 662 mmHg 76%
    22:00 +2°C° 0 mm 1 m/S 662 mmHg 78%
    23:00 +2°C° 0 mm 1 m/S 662 mmHg 80%

    25 September, Dienstag

    Zeit Temperatur Niederschläge Wind Luftdruck Luftfeuchtigkeit
    00:00 +2°C° 0 mm 1 m/S 662 mmHg 81%
    01:00 +2°C° 0 mm 1 m/S 662 mmHg 81%
    02:00 +1°C° 0 mm 1 m/S 662 mmHg 82%
    03:00 +1°C° 0 mm 1 m/S 662 mmHg 83%
    04:00 +1°C° 0 mm 1 m/S 662 mmHg 84%
    05:00 +1°C° 0 mm 1 m/S 662 mmHg 84%
    06:00 +2°C° 0 mm 1 m/S 662 mmHg 80%
    07:00 +3°C° 0 mm 1 m/S 662 mmHg 76%
    08:00 +4°C° 0 mm 1 m/S 662 mmHg 72%
    09:00 +5°C° 0 mm 2 m/S 662 mmHg 66%
    10:00 +6°C° 0 mm 2 m/S 662 mmHg 60%
    11:00 +8°C° 0 mm 3 m/S 662 mmHg 55%
    12:00 +9°C° 0 mm 3 m/S 662 mmHg 54%
    13:00 +9°C° 0 mm 3 m/S 661 mmHg 53%
    14:00 +10°C° 0 mm 4 m/S 661 mmHg 51%
    15:00 +10°C° 0 mm 3 m/S 661 mmHg 56%
    16:00 +9°C° 0 mm 3 m/S 661 mmHg 60%
    17:00 +9°C° 0 mm 3 m/S 661 mmHg 64%
    18:00 +7°C° 0 mm 2 m/S 660 mmHg 71%
    19:00 +5°C° 0 mm 2 m/S 660 mmHg 77%
    20:00 +4°C° 0 mm 1 m/S 660 mmHg 84%
    21:00 +4°C° 0 mm 1 m/S 660 mmHg 85%
    22:00 +4°C° 0 mm 1 m/S 660 mmHg 86%
    23:00 +4°C° 0 mm 1 m/S 660 mmHg 87%

    26 September, Mittwoch

    Zeit Temperatur Niederschläge Wind Luftdruck Luftfeuchtigkeit
    00:00 +4°C° 0 mm 1 m/S 660 mmHg 89%
    01:00 +3°C° 0 mm 1 m/S 659 mmHg 91%
    02:00 +3°C° 0 mm 1 m/S 659 mmHg 92%
    03:00 +3°C° 0 mm 1 m/S 658 mmHg 93%
    04:00 +3°C° 0 mm 1 m/S 658 mmHg 94%
    05:00 +3°C° 0 mm 1 m/S 658 mmHg 94%
    06:00 +3°C° 0.1 mm 2 m/S 658 mmHg 93%
    07:00 +3°C° 0.1 mm 2 m/S 658 mmHg 91%
    08:00 +4°C° 0.1 mm 2 m/S 658 mmHg 89%
    09:00 +4°C° 0.5 mm 2 m/S 658 mmHg 88%
    10:00 +5°C° 0.5 mm 2 m/S 657 mmHg 87%
    11:00 +4°C° 0.5 mm 3 m/S 657 mmHg 85%
    12:00 +5°C° 0.6 mm 2 m/S 657 mmHg 87%
    13:00 +5°C° 0.6 mm 2 m/S 657 mmHg 88%
    14:00 +5°C° 0.6 mm 2 m/S 657 mmHg 89%
    15:00 +5°C° 0.5 mm 2 m/S 657 mmHg 91%
    16:00 +6°C° 0.5 mm 1 m/S 657 mmHg 92%
    17:00 +6°C° 0.5 mm 1 m/S 657 mmHg 94%
    18:00 +5°C° 0.4 mm 1 m/S 657 mmHg 95%
    19:00 +5°C° 0.4 mm 1 m/S 658 mmHg 95%
    20:00 +4°C° 0.4 mm 0 m/S 658 mmHg 96%
    21:00 +3°C° 0.2 mm 0 m/S 658 mmHg 96%
    22:00 +3°C° 0.2 mm 0 m/S 658 mmHg 96%
    23:00 +2°C° 0.2 mm 0 m/S 658 mmHg 96%
    Mehr zeigen